Weather in Kuba-Taba

Russia / The Kabardino-Balkar Republic     43°46′30″N   43°26′46″E
temp.,
°C
wind,
m/s
gust,
m/s
humid.,
%
clouds,
%
prec.,
mm/h
press.,
hPa
HPBL,
m
26 july, mon
mon2600:00+20sse237577 0.0 101646
03:00+20sse117341 0.0 101614
06:00+19s118029 0.0 101733
09:00+23ese575878 0.0 1017857
12:00+27e564315 0.0 10161677
15:00+29ese464166 0.0 10142154
18:00+25e4757100 0.0 1015208
21:00+24e5105790 0.0 1016689
27 july, tue
tue2700:00+21ese61271100 0.0 1016507
03:00+18ese259555 0.1 1015125
06:00+18nne2595100 1.2 1016314
09:00+19n2289100 1.4 1016166
12:00+17n4696100 0.8 1017273
15:00+16nnw3696100 8.1 1018310
18:00+16wnw3496100 8.4 1019245
21:00+15w2290100 12.0 102035
28 july, wed
wed2800:00+15wsw1187100 0.2 102015
03:00+14n2290100 0.3 101955
06:00+13n1295100 0.8 1020122
09:00+13se1594100 2.2 1021285
12:00+15se358596 0.1 1020332
15:00+19ese466311 0.1 1019873
18:00+19ese356636 0.0 1019539
21:00+15s23828 0.0 101928
29 july, thu
thu2900:00+14sw32820 0.0 101722
03:00+13sw22770 0.0 101613
06:00+14s22760 0.0 101728
09:00+21ese36590 0.0 1017596
12:00+24ese57440 0.0 10151609
15:00+26ese56390 0.0 10142015
18:00+24s35610 0.0 1014140
21:00+18wsw22680 0.0 101418
30 july, fri
fri3000:00+17sw22750 0.0 101415
03:00+16sw32770 0.0 101420
06:00+17w22740 0.0 101418
09:00+23ene22530 0.0 1014511
12:00+26ene33460 0.0 10131265
15:00+28ese23410 0.0 10111662
18:00+26sw235623 0.0 101149
21:00+21wsw336026 0.0 101130